| time (UTC) | temp F | wind direction | speed MPH | gust MPH | rain 1hr in | rain 24hr in | rain mn in | humidity % | barometer mb |
| 20260508234705 | 71 | 267 | 0.0 | 7.0 | 0.00 | 0.00 | 0.00 | 24 | 1014.7 |
| 20260508234147 | 72 | 276 | 0.0 | 10.0 | 0.00 | 0.00 | 0.00 | 24 | 1014.8 |
| 20260508233614 | 72 | 251 | 0.0 | 10.0 | 0.00 | 0.00 | 0.00 | 24 | 1014.8 |
| 20260508233324 | 72 | 236 | 0.0 | 4.0 | 0.00 | 0.00 | 0.00 | 25 | 1014.8 |
| 20260508232551 | 72 | 241 | 0.0 | 5.0 | 0.00 | 0.00 | 0.00 | 25 | 1014.8 |
| 20260508232026 | 73 | 242 | 0.0 | 5.0 | 0.00 | 0.00 | 0.00 | 24 | 1014.8 |
| 20260508231516 | 73 | 46 | 0.0 | 7.0 | 0.00 | 0.00 | 0.00 | 25 | 1014.8 |
| 20260508231015 | 73 | 232 | 0.0 | 7.0 | 0.00 | 0.00 | 0.00 | 23 | 1014.9 |
| 20260508230514 | 74 | 242 | 0.0 | 8.0 | 0.00 | 0.00 | 0.00 | 24 | 1014.9 |
| 20260508225952 | 74 | 220 | 0.0 | 12.0 | 0.00 | 0.00 | 0.00 | 23 | 1014.9 |
| 20260508225456 | 74 | 148 | 1.0 | 13.0 | 0.00 | 0.00 | 0.00 | 22 | 1014.8 |
| 20260508224953 | 74 | 236 | 0.0 | 13.0 | 0.00 | 0.00 | 0.00 | 22 | 1014.8 |
| 20260508224456 | 75 | 232 | 0.0 | 5.0 | 0.00 | 0.00 | 0.00 | 23 | 1014.9 |
| 20260508223935 | 75 | 273 | 0.0 | 5.0 | 0.00 | 0.00 | 0.00 | 24 | 1014.8 |
| 20260508223333 | 75 | 229 | 0.0 | 13.0 | 0.00 | 0.00 | 0.00 | 24 | 1014.8 |
| 20260508223329 | 75 | 240 | 0.0 | 1.0 | 0.00 | 0.00 | 0.00 | 23 | 1014.8 |
| 20260508222308 | 75 | 248 | 0.0 | 8.0 | 0.00 | 0.00 | 0.00 | 22 | 1014.8 |
| 20260508222014 | 75 | 180 | 0.0 | 5.0 | 0.00 | 0.00 | 0.00 | 23 | 1014.8 |
| 20260508221218 | 74 | 263 | 0.0 | 5.0 | 0.00 | 0.00 | 0.00 | 23 | 1014.9 |
| 20260508220709 | 74 | 271 | 0.0 | 5.0 | 0.00 | 0.00 | 0.00 | 23 | 1015.0 |
| 20260508220154 | 74 | 236 | 0.0 | 8.0 | 0.00 | 0.00 | 0.00 | 24 | 1015.0 |
| 20260508215924 | 73 | 277 | 0.0 | 4.0 | 0.00 | 0.00 | 0.00 | 23 | 1015.0 |
| 20260508215432 | 73 | 266 | 0.0 | 6.0 | 0.00 | 0.00 | 0.00 | 24 | 1015.3 |
| 20260508215155 | 73 | 67 | 1.0 | 13.0 | 0.00 | 0.00 | 0.00 | 23 | 1015.2 |
| 20260508214645 | 73 | 265 | 1.0 | 13.0 | 0.00 | 0.00 | 0.00 | 23 | 1015.3 |
| 20260508213645 | 72 | 269 | 0.0 | 6.0 | 0.00 | 0.00 | 0.00 | 23 | 1015.3 |
| 20260508213108 | 72 | 200 | 0.0 | 4.0 | 0.00 | 0.00 | 0.00 | 23 | 1015.4 |
| 20260508212816 | 72 | 218 | 0.0 | 4.0 | 0.00 | 0.00 | 0.00 | 23 | 1015.5 |
| 20260508212041 | 72 | 196 | 0.0 | 2.0 | 0.00 | 0.00 | 0.00 | 23 | 1015.5 |
| 20260508211752 | 73 | 214 | 0.0 | 2.0 | 0.00 | 0.00 | 0.00 | 22 | 1015.6 |
| 20260508211018 | 73 | 181 | 0.0 | 8.0 | 0.00 | 0.00 | 0.00 | 22 | 1015.6 |
| 20260508210520 | 73 | 221 | 0.0 | 8.0 | 0.00 | 0.00 | 0.00 | 21 | 1015.7 |
| 20260508205941 | 73 | 210 | 0.0 | 6.0 | 0.00 | 0.00 | 0.00 | 21 | 1015.8 |
| 20260508205436 | 74 | 248 | 0.0 | 3.0 | 0.00 | 0.00 | 0.00 | 21 | 1015.8 |
| 20260508204933 | 74 | 221 | 0.0 | 3.0 | 0.00 | 0.00 | 0.00 | 21 | 1015.9 |
| 20260508204407 | 74 | 237 | 0.0 | 5.0 | 0.00 | 0.00 | 0.00 | 22 | 1016.0 |
| 20260508203843 | 74 | 242 | 0.0 | 5.0 | 0.00 | 0.00 | 0.00 | 21 | 1016.1 |
| 20260508203618 | 74 | 250 | 0.0 | 4.0 | 0.00 | 0.00 | 0.00 | 21 | 1016.2 |
| 20260508203118 | 73 | 286 | 0.0 | 3.0 | 0.00 | 0.00 | 0.00 | 21 | 1016.4 |
| 20260508202842 | 73 | 198 | 0.0 | 3.0 | 0.00 | 0.00 | 0.00 | 22 | 1016.3 |
| 20260508201834 | 73 | 223 | 0.0 | 8.0 | 0.00 | 0.00 | 0.00 | 22 | 1016.4 |
| 20260508201308 | 74 | 267 | 0.0 | 8.0 | 0.00 | 0.00 | 0.00 | 20 | 1016.5 |
| 20260508200807 | 74 | 196 | 0.0 | 3.0 | 0.00 | 0.00 | 0.00 | 21 | 1016.7 |
| 20260508200246 | 75 | 222 | 0.0 | 2.0 | 0.00 | 0.00 | 0.00 | 21 | 1016.7 |
| 20260508195741 | 75 | 228 | 0.0 | 5.0 | 0.00 | 0.00 | 0.00 | 21 | 1016.8 |
| 20260508195442 | 74 | 219 | 0.0 | 5.0 | 0.00 | 0.00 | 0.00 | 23 | 1016.8 |
| 20260508194944 | 73 | 244 | 0.0 | 9.0 | 0.00 | 0.00 | 0.00 | 21 | 1017.0 |
| 20260508194147 | 73 | 225 | 0.0 | 4.0 | 0.00 | 0.00 | 0.00 | 23 | 1017.1 |
| 20260508193647 | 72 | 240 | 0.0 | 4.0 | 0.00 | 0.00 | 0.00 | 23 | 1017.2 |
| 20260508193148 | 72 | 198 | 0.0 | 8.0 | 0.00 | 0.00 | 0.00 | 22 | 1017.3 |
| 20260508192648 | 73 | 277 | 0.0 | 8.0 | 0.00 | 0.00 | 0.00 | 23 | 1017.4 |
| 20260508192144 | 72 | 248 | 0.0 | 4.0 | 0.00 | 0.00 | 0.00 | 23 | 1017.4 |
| 20260508191643 | 72 | 211 | 0.0 | 3.0 | 0.00 | 0.00 | 0.00 | 22 | 1017.3 |
| 20260508191138 | 72 | 153 | 0.0 | 8.0 | 0.00 | 0.00 | 0.00 | 22 | 1017.4 |
| 20260508190906 | 73 | 190 | 0.0 | 11.0 | 0.00 | 0.00 | 0.00 | 21 | 1017.6 |
| 20260508190108 | 73 | 255 | 0.0 | 3.0 | 0.00 | 0.00 | 0.00 | 20 | 1017.6 |
| 20260508185558 | 74 | 296 | 0.0 | 3.0 | 0.00 | 0.00 | 0.00 | 20 | 1017.4 |
| 20260508185057 | 74 | 170 | 0.0 | 6.0 | 0.00 | 0.00 | 0.00 | 19 | 1017.6 |
| 20260508184529 | 74 | 241 | 0.0 | 6.0 | 0.00 | 0.00 | 0.00 | 20 | 1017.6 |
| 20260508184256 | 74 | 252 | 1.0 | 11.0 | 0.00 | 0.00 | 0.00 | 19 | 1017.7 |
| 20260508183459 | 73 | 284 | 1.0 | 11.0 | 0.00 | 0.00 | 0.00 | 20 | 1017.7 |
| 20260508183454 | 73 | 304 | 0.0 | 4.0 | 0.00 | 0.00 | 0.00 | 20 | 1017.8 |
| 20260508182431 | 73 | 266 | 1.0 | 9.0 | 0.00 | 0.00 | 0.00 | 20 | 1017.9 |
| 20260508181929 | 72 | 244 | 1.0 | 9.0 | 0.00 | 0.00 | 0.00 | 21 | 1018.0 |
| 20260508181403 | 73 | 257 | 0.0 | 10.0 | 0.00 | 0.00 | 0.00 | 20 | 1018.2 |
| 20260508181105 | 74 | 235 | 0.0 | 10.0 | 0.00 | 0.00 | 0.00 | 19 | 1018.2 |
| 20260508180333 | 74 | 257 | 0.0 | 6.0 | 0.00 | 0.00 | 0.00 | 20 | 1018.3 |
| 20260508175816 | 73 | 232 | 0.0 | 6.0 | 0.00 | 0.00 | 0.00 | 20 | 1018.3 |
| 20260508175317 | 72 | 241 | 0.0 | 10.0 | 0.00 | 0.00 | 0.00 | 22 | 1018.4 |
| 20260508174752 | 71 | 240 | 0.0 | 10.0 | 0.00 | 0.00 | 0.00 | 21 | 1018.6 |
| 20260508174726 | 71 | 250 | 1.0 | 12.0 | 0.00 | 0.00 | 0.00 | 22 | 1018.7 |
| 20260508173656 | 71 | 217 | 1.0 | 12.0 | 0.00 | 0.00 | 0.00 | 21 | 1018.8 |
| 20260508173155 | 72 | 214 | 0.0 | 1.0 | 0.00 | 0.00 | 0.00 | 22 | 1018.9 |
| 20260508172637 | 72 | 255 | 0.0 | 7.0 | 0.00 | 0.00 | 0.00 | 22 | 1019.0 |
| 20260508172141 | 71 | 258 | 0.0 | 7.0 | 0.00 | 0.00 | 0.00 | 22 | 1019.0 |
| 20260508171612 | 71 | 212 | 0.0 | 4.0 | 0.00 | 0.00 | 0.00 | 22 | 1019.1 |
| 20260508171111 | 71 | 219 | 0.0 | 4.0 | 0.00 | 0.00 | 0.00 | 23 | 1019.2 |
| 20260508171045 | 70 | 301 | 0.0 | 4.0 | 0.00 | 0.00 | 0.00 | 23 | 1019.2 |
| 20260508170039 | 69 | 222 | 0.0 | 3.0 | 0.00 | 0.00 | 0.00 | 25 | 1019.5 |
| 20260508165536 | 68 | 234 | 0.0 | 17.0 | 0.00 | 0.00 | 0.00 | 23 | 1019.5 |
| 20260508165250 | 68 | 225 | 0.0 | 3.0 | 0.00 | 0.00 | 0.00 | 24 | 1019.5 |
| 20260508164719 | 68 | 262 | 0.0 | 1.0 | 0.00 | 0.00 | 0.00 | 24 | 1019.7 |
| 20260508163944 | 68 | 301 | 0.0 | 4.0 | 0.00 | 0.00 | 0.00 | 24 | 1019.7 |
| 20260508163443 | 68 | 256 | 0.0 | 4.0 | 0.00 | 0.00 | 0.00 | 25 | 1019.8 |
| 20260508162917 | 67 | 236 | 0.0 | 4.0 | 0.00 | 0.00 | 0.00 | 28 | 1019.7 |
| 20260508162632 | 66 | 194 | 0.0 | 0.0 | 0.00 | 0.00 | 0.00 | 30 | 1020.0 |
| 20260508162129 | 65 | 219 | 0.0 | 0.0 | 0.00 | 0.00 | 0.00 | 32 | 1020.0 |
| 20260508161356 | 64 | 219 | 0.0 | 0.0 | 0.00 | 0.00 | 0.00 | 33 | 1020.1 |
| 20260508160855 | 63 | 204 | 0.0 | 1.0 | 0.00 | 0.00 | 0.00 | 33 | 1020.2 |
| 20260508160326 | 63 | 203 | 0.0 | 1.0 | 0.00 | 0.00 | 0.00 | 33 | 1020.2 |
| 20260508160053 | 62 | 205 | 0.0 | 0.0 | 0.00 | 0.00 | 0.00 | 34 | 1020.3 |
| 20260508155256 | 62 | 175 | 0.0 | 1.0 | 0.00 | 0.00 | 0.00 | 34 | 1020.3 |
| 20260508154748 | 62 | 190 | 0.0 | 1.0 | 0.00 | 0.00 | 0.00 | 34 | 1020.4 |
| 20260508154220 | 61 | 242 | 0.0 | 2.0 | 0.00 | 0.00 | 0.00 | 34 | 1020.5 |
| 20260508153655 | 60 | 221 | 0.0 | 4.0 | 0.00 | 0.00 | 0.00 | 35 | 1020.6 |
| 20260508153128 | 60 | 245 | 0.0 | 1.0 | 0.00 | 0.00 | 0.00 | 35 | 1020.6 |
| 20260508152611 | 60 | 248 | 0.0 | 9.0 | 0.00 | 0.00 | 0.00 | 34 | 1020.6 |
| 20260508152110 | 60 | 213 | 0.0 | 9.0 | 0.00 | 0.00 | 0.00 | 34 | 1020.6 |
| 20260508151850 | 59 | 200 | 0.0 | 5.0 | 0.00 | 0.00 | 0.00 | 35 | 1020.6 |
| 20260508151613 | 60 | 189 | 0.0 | 5.0 | 0.00 | 0.00 | 0.00 | 35 | 1020.6 |
| 20260508150607 | 59 | 226 | 0.0 | 7.0 | 0.00 | 0.00 | 0.00 | 35 | 1020.7 |
| 20260508150042 | 58 | 228 | 1.0 | 7.0 | 0.00 | 0.00 | 0.00 | 34 | 1020.7 |
| 20260508145742 | 58 | 213 | 1.0 | 10.0 | 0.00 | 0.00 | 0.00 | 35 | 1020.7 |
| 20260508145009 | 58 | 213 | 1.0 | 10.0 | 0.00 | 0.00 | 0.00 | 35 | 1020.7 |
| 20260508144714 | 57 | 216 | 0.0 | 10.0 | 0.00 | 0.00 | 0.00 | 37 | 1020.8 |
| 20260508144152 | 56 | 235 | 2.0 | 10.0 | 0.00 | 0.00 | 0.00 | 37 | 1020.9 |
| 20260508143917 | 57 | 190 | 1.0 | 10.0 | 0.00 | 0.00 | 0.00 | 37 | 1020.8 |
| 20260508142848 | 56 | 194 | 2.0 | 10.0 | 0.00 | 0.00 | 0.00 | 36 | 1020.9 |
| 20260508142346 | 56 | 197 | 2.0 | 13.0 | 0.00 | 0.00 | 0.00 | 36 | 1020.9 |
| 20260508141829 | 56 | 213 | 1.0 | 13.0 | 0.00 | 0.00 | 0.00 | 37 | 1021.0 |
| 20260508141332 | 56 | 232 | 0.0 | 6.0 | 0.00 | 0.00 | 0.00 | 38 | 1020.9 |
| 20260508140804 | 55 | 182 | 0.0 | 1.0 | 0.00 | 0.00 | 0.00 | 40 | 1021.0 |
| 20260508140303 | 55 | 235 | 0.0 | 4.0 | 0.00 | 0.00 | 0.00 | 39 | 1021.0 |
| 20260508135737 | 54 | 236 | 0.0 | 4.0 | 0.00 | 0.00 | 0.00 | 40 | 1021.1 |
| 20260508135443 | 54 | 211 | 0.0 | 10.0 | 0.00 | 0.00 | 0.00 | 40 | 1021.1 |
| 20260508134940 | 53 | 227 | 2.0 | 10.0 | 0.00 | 0.00 | 0.00 | 40 | 1021.1 |
| 20260508134131 | 53 | 215 | 2.0 | 11.0 | 0.00 | 0.00 | 0.00 | 39 | 1021.1 |
| 20260508133602 | 53 | 241 | 1.0 | 9.0 | 0.00 | 0.00 | 0.00 | 40 | 1021.2 |
| 20260508133039 | 52 | 242 | 1.0 | 11.0 | 0.00 | 0.00 | 0.00 | 40 | 1021.2 |
| 20260508132512 | 52 | 194 | 1.0 | 11.0 | 0.00 | 0.00 | 0.00 | 39 | 1021.2 |
| 20260508132015 | 52 | 208 | 1.0 | 7.0 | 0.00 | 0.00 | 0.00 | 40 | 1021.2 |
| 20260508131516 | 52 | 205 | 1.0 | 10.0 | 0.00 | 0.00 | 0.00 | 39 | 1021.3 |
| 20260508130959 | 52 | 185 | 1.0 | 10.0 | 0.00 | 0.00 | 0.00 | 40 | 1021.2 |
| 20260508130501 | 52 | 196 | 2.0 | 10.0 | 0.00 | 0.00 | 0.00 | 40 | 1021.3 |
| 20260508130207 | 51 | 205 | 1.0 | 10.0 | 0.00 | 0.00 | 0.00 | 41 | 1021.3 |
| 20260508130052 | 51 | 205 | 1.0 | 10.0 | 0.00 | 0.00 | 0.00 | 42 | 1021.3 |
| 20260508124936 | 50 | 196 | 1.0 | 10.0 | 0.00 | 0.00 | 0.00 | 42 | 1021.3 |
| 20260508124920 | 49 | 225 | 2.0 | 12.0 | 0.00 | 0.00 | 0.00 | 42 | 1021.3 |
| 20260508123918 | 49 | 225 | 2.0 | 12.0 | 0.00 | 0.00 | 0.00 | 43 | 1021.3 |
| 20260508123423 | 49 | 205 | 1.0 | 11.0 | 0.00 | 0.00 | 0.00 | 42 | 1021.3 |
| 20260508122917 | 48 | 196 | 1.0 | 10.0 | 0.00 | 0.00 | 0.00 | 44 | 1021.3 |
| 20260508122417 | 48 | 196 | 1.0 | 10.0 | 0.00 | 0.00 | 0.00 | 43 | 1021.3 |
| 20260508122412 | 47 | 213 | 1.0 | 8.0 | 0.00 | 0.00 | 0.00 | 44 | 1021.3 |
| 20260508121410 | 47 | 216 | 0.0 | 8.0 | 0.00 | 0.00 | 0.00 | 45 | 1021.2 |
| 20260508120904 | 47 | 209 | 0.0 | 8.0 | 0.00 | 0.00 | 0.00 | 45 | 1021.2 |
| 20260508120405 | 47 | 190 | 0.0 | 5.0 | 0.00 | 0.00 | 0.00 | 45 | 1021.2 |
| 20260508115858 | 46 | 209 | 0.0 | 5.0 | 0.00 | 0.00 | 0.00 | 45 | 1021.1 |
| 20260508115629 | 46 | 225 | 1.0 | 9.0 | 0.00 | 0.00 | 0.00 | 45 | 1021.1 |
| 20260508114841 | 46 | 217 | 2.0 | 8.0 | 0.00 | 0.00 | 0.00 | 45 | 1021.2 |
| 20260508114613 | 46 | 206 | 1.0 | 9.0 | 0.00 | 0.00 | 0.00 | 45 | 1021.1 |
| 20260508113836 | 46 | 195 | 0.0 | 6.0 | 0.00 | 0.00 | 0.00 | 46 | 1021.1 |
| 20260508113339 | 45 | 212 | 0.0 | 7.0 | 0.00 | 0.00 | 0.00 | 46 | 1021.2 |
| 20260508113048 | 45 | 221 | 0.0 | 7.0 | 0.00 | 0.00 | 0.00 | 46 | 1021.2 |
| 20260508112316 | 45 | 217 | 0.0 | 4.0 | 0.00 | 0.00 | 0.00 | 46 | 1021.2 |
| 20260508111756 | 45 | 200 | 0.0 | 5.0 | 0.00 | 0.00 | 0.00 | 46 | 1021.2 |
| 20260508111500 | 45 | 203 | 1.0 | 8.0 | 0.00 | 0.00 | 0.00 | 46 | 1021.2 |
| 20260508110939 | 45 | 189 | 0.0 | 8.0 | 0.00 | 0.00 | 0.00 | 47 | 1021.2 |
| 20260508110439 | 45 | 200 | 0.0 | 4.0 | 0.00 | 0.00 | 0.00 | 47 | 1021.2 |
| 20260508105936 | 45 | 238 | 0.0 | 8.0 | 0.00 | 0.00 | 0.00 | 47 | 1021.2 |
| 20260508105434 | 45 | 209 | 0.0 | 6.0 | 0.00 | 0.00 | 0.00 | 47 | 1021.2 |
| 20260508104934 | 44 | 225 | 0.0 | 5.0 | 0.00 | 0.00 | 0.00 | 47 | 1021.2 |
| 20260508104142 | 44 | 221 | 0.0 | 5.0 | 0.00 | 0.00 | 0.00 | 48 | 1021.2 |
| 20260508103643 | 44 | 194 | 0.0 | 3.0 | 0.00 | 0.00 | 0.00 | 48 | 1021.2 |
| 20260508103416 | 44 | 209 | 0.0 | 7.0 | 0.00 | 0.00 | 0.00 | 48 | 1021.2 |
| 20260508102622 | 44 | 192 | 0.0 | 7.0 | 0.00 | 0.00 | 0.00 | 48 | 1021.3 |
| 20260508102121 | 44 | 193 | 0.0 | 4.0 | 0.00 | 0.00 | 0.00 | 48 | 1021.3 |
| 20260508101604 | 44 | 208 | 0.0 | 3.0 | 0.00 | 0.00 | 0.00 | 48 | 1021.3 |
| 20260508101104 | 44 | 196 | 0.0 | 2.0 | 0.00 | 0.00 | 0.00 | 48 | 1021.4 |
| 20260508100606 | 44 | 212 | 0.0 | 4.0 | 0.00 | 0.00 | 0.00 | 48 | 1021.3 |
| 20260508100105 | 44 | 225 | 0.0 | 4.0 | 0.00 | 0.00 | 0.00 | 48 | 1021.4 |
| 20260508095540 | 44 | 182 | 0.0 | 3.0 | 0.00 | 0.00 | 0.00 | 47 | 1021.3 |
| 20260508095035 | 45 | 211 | 0.0 | 1.0 | 0.00 | 0.00 | 0.00 | 47 | 1021.3 |
| 20260508094537 | 45 | 202 | 0.0 | 1.0 | 0.00 | 0.00 | 0.00 | 46 | 1021.4 |
| 20260508094026 | 45 | 206 | 0.0 | 4.0 | 0.00 | 0.00 | 0.00 | 46 | 1021.4 |
| 20260508093507 | 45 | 207 | 0.0 | 4.0 | 0.00 | 0.00 | 0.00 | 45 | 1021.4 |
| 20260508093003 | 45 | 209 | 0.0 | 1.0 | 0.00 | 0.00 | 0.00 | 45 | 1021.4 |
| 20260508092442 | 45 | 191 | 0.0 | 7.0 | 0.00 | 0.00 | 0.00 | 45 | 1021.4 |
| 20260508091911 | 46 | 212 | 0.0 | 7.0 | 0.00 | 0.00 | 0.00 | 44 | 1021.4 |
| 20260508091639 | 46 | 204 | 0.0 | 8.0 | 0.00 | 0.00 | 0.00 | 44 | 1021.5 |
| 20260508091137 | 46 | 211 | 0.0 | 8.0 | 0.00 | 0.00 | 0.00 | 44 | 1021.4 |
| 20260508090410 | 46 | 205 | 1.0 | 9.0 | 0.00 | 0.00 | 0.00 | 44 | 1021.4 |
| 20260508085833 | 46 | 203 | 1.0 | 9.0 | 0.00 | 0.00 | 0.00 | 44 | 1021.5 |
| 20260508085301 | 45 | 207 | 0.0 | 5.0 | 0.00 | 0.00 | 0.00 | 45 | 1021.5 |
| 20260508084731 | 46 | 204 | 0.0 | 3.0 | 0.00 | 0.00 | 0.00 | 44 | 1021.5 |
| 20260508084437 | 46 | 184 | 0.0 | 5.0 | 0.00 | 0.00 | 0.00 | 44 | 1021.5 |
| 20260508083710 | 46 | 203 | 0.0 | 5.0 | 0.00 | 0.00 | 0.00 | 44 | 1021.5 |
| 20260508083149 | 46 | 207 | 0.0 | 4.0 | 0.00 | 0.00 | 0.00 | 45 | 1021.5 |
| 20260508082646 | 46 | 190 | 0.0 | 7.0 | 0.00 | 0.00 | 0.00 | 45 | 1021.6 |
| 20260508082143 | 46 | 215 | 1.0 | 7.0 | 0.00 | 0.00 | 0.00 | 45 | 1021.6 |
| 20260508081641 | 46 | 227 | 1.0 | 10.0 | 0.00 | 0.00 | 0.00 | 45 | 1021.5 |
| 20260508081344 | 46 | 208 | 0.0 | 10.0 | 0.00 | 0.00 | 0.00 | 45 | 1021.6 |
| 20260508080611 | 46 | 215 | 0.0 | 5.0 | 0.00 | 0.00 | 0.00 | 46 | 1021.7 |
| 20260508080059 | 46 | 205 | 0.0 | 5.0 | 0.00 | 0.00 | 0.00 | 46 | 1021.7 |
| 20260508075556 | 46 | 200 | 0.0 | 2.0 | 0.00 | 0.00 | 0.00 | 46 | 1021.7 |
| 20260508075032 | 46 | 212 | 0.0 | 3.0 | 0.00 | 0.00 | 0.00 | 46 | 1021.7 |
| 20260508074506 | 46 | 196 | 0.0 | 3.0 | 0.00 | 0.00 | 0.00 | 46 | 1021.8 |
| 20260508073940 | 46 | 210 | 0.0 | 2.0 | 0.00 | 0.00 | 0.00 | 46 | 1021.8 |
| 20260508073420 | 46 | 215 | 0.0 | 2.0 | 0.00 | 0.00 | 0.00 | 46 | 1021.8 |
| 20260508072917 | 46 | 194 | 0.0 | 3.0 | 0.00 | 0.00 | 0.00 | 46 | 1021.9 |
| 20260508072416 | 46 | 197 | 0.0 | 3.0 | 0.00 | 0.00 | 0.00 | 46 | 1021.9 |
| 20260508071850 | 46 | 223 | 0.0 | 2.0 | 0.00 | 0.00 | 0.00 | 46 | 1021.9 |
| 20260508071324 | 46 | 202 | 0.0 | 1.0 | 0.00 | 0.00 | 0.00 | 46 | 1022.0 |
| 20260508070758 | 46 | 196 | 0.0 | 8.0 | 0.00 | 0.00 | 0.00 | 46 | 1022.0 |
| 20260508070241 | 46 | 230 | 0.0 | 8.0 | 0.00 | 0.00 | 0.00 | 46 | 1022.0 |
| 20260508070015 | 46 | 188 | 0.0 | 3.0 | 0.00 | 0.00 | 0.00 | 46 | 1022.1 |
| 20260508065217 | 46 | 202 | 0.0 | 3.0 | 0.00 | 0.00 | 0.00 | 46 | 1022.1 |
| 20260508064944 | 46 | 198 | 0.0 | 5.0 | 0.00 | 0.00 | 0.00 | 46 | 1022.1 |
| 20260508064210 | 46 | 207 | 0.0 | 5.0 | 0.00 | 0.00 | 0.00 | 46 | 1022.1 |
| 20260508063940 | 46 | 215 | 0.0 | 1.0 | 0.00 | 0.00 | 0.00 | 47 | 1022.2 |
| 20260508063141 | 46 | 200 | 0.0 | 2.0 | 0.00 | 0.00 | 0.00 | 47 | 1022.2 |
| 20260508062624 | 46 | 213 | 0.0 | 2.0 | 0.00 | 0.00 | 0.00 | 46 | 1022.2 |
| 20260508062328 | 46 | 211 | 0.0 | 3.0 | 0.00 | 0.00 | 0.00 | 46 | 1022.4 |
| 20260508061529 | 46 | 221 | 0.0 | 3.0 | 0.00 | 0.00 | 0.00 | 46 | 1022.5 |
| 20260508061028 | 46 | 207 | 0.0 | 0.0 | 0.00 | 0.00 | 0.00 | 46 | 1022.5 |
| 20260508060459 | 47 | 202 | 0.0 | 0.0 | 0.00 | 0.00 | 0.00 | 46 | 1022.5 |
| 20260508055957 | 47 | 202 | 0.0 | 0.0 | 0.00 | 0.00 | 0.00 | 45 | 1022.5 |
| 20260508055448 | 47 | 205 | 0.0 | 0.0 | 0.00 | 0.00 | 0.00 | 44 | 1022.5 |
| 20260508054919 | 47 | 207 | 0.0 | 0.0 | 0.00 | 0.00 | 0.00 | 43 | 1022.6 |
| 20260508054418 | 48 | 219 | 0.0 | 1.0 | 0.00 | 0.00 | 0.00 | 43 | 1022.6 |
| 20260508053849 | 48 | 202 | 0.0 | 1.0 | 0.00 | 0.00 | 0.00 | 42 | 1022.6 |
| 20260508053324 | 48 | 220 | 0.0 | 0.0 | 0.00 | 0.00 | 0.00 | 42 | 1022.6 |
| 20260508052807 | 48 | 209 | 0.0 | 1.0 | 0.00 | 0.00 | 0.00 | 42 | 1022.6 |
| 20260508052310 | 48 | 215 | 0.0 | 1.0 | 0.00 | 0.00 | 0.00 | 42 | 1022.7 |
| 20260508051741 | 48 | 207 | 0.0 | 1.0 | 0.00 | 0.00 | 0.00 | 42 | 1022.7 |
| 20260508051240 | 48 | 206 | 0.0 | 0.0 | 0.00 | 0.00 | 0.00 | 42 | 1022.7 |
| 20260508050712 | 49 | 209 | 0.0 | 0.0 | 0.00 | 0.00 | 0.00 | 42 | 1022.7 |
| 20260508050143 | 49 | 225 | 0.0 | 0.0 | 0.00 | 0.00 | 0.00 | 40 | 1022.8 |
| 20260508045912 | 49 | 202 | 0.0 | 0.0 | 0.00 | 0.00 | 0.00 | 40 | 1022.7 |
| 20260508045132 | 49 | 200 | 0.0 | 0.0 | 0.00 | 0.00 | 0.00 | 39 | 1022.8 |
| 20260508044607 | 49 | 200 | 0.0 | 0.0 | 0.00 | 0.00 | 0.00 | 40 | 1022.8 |
| 20260508044059 | 49 | 200 | 0.0 | 0.0 | 0.00 | 0.00 | 0.00 | 40 | 1022.9 |
| 20260508043557 | 49 | 212 | 0.0 | 0.0 | 0.00 | 0.00 | 0.00 | 42 | 1022.9 |
| 20260508043029 | 49 | 212 | 0.0 | 0.0 | 0.00 | 0.00 | 0.00 | 42 | 1023.0 |
| 20260508042528 | 49 | 212 | 0.0 | 0.0 | 0.00 | 0.00 | 0.00 | 42 | 1022.9 |
| 20260508042023 | 49 | 212 | 0.0 | 0.0 | 0.00 | 0.00 | 0.00 | 41 | 1023.0 |
| 20260508041526 | 50 | 224 | 0.0 | 0.0 | 0.00 | 0.00 | 0.00 | 39 | 1023.0 |
| 20260508041251 | 50 | 224 | 0.0 | 0.0 | 0.00 | 0.00 | 0.00 | 39 | 1023.0 |
| 20260508040524 | 50 | 224 | 0.0 | 0.0 | 0.00 | 0.00 | 0.00 | 38 | 1023.0 |
| 20260508035955 | 51 | 224 | 0.0 | 0.0 | 0.00 | 0.00 | 0.00 | 38 | 1023.0 |
| 20260508035454 | 51 | 224 | 0.0 | 0.0 | 0.00 | 0.00 | 0.00 | 37 | 1023.0 |
| 20260508034937 | 51 | 224 | 0.0 | 0.0 | 0.00 | 0.00 | 0.00 | 35 | 1023.1 |
| 20260508034440 | 51 | 224 | 0.0 | 0.0 | 0.00 | 0.00 | 0.00 | 35 | 1023.2 |
| 20260508033912 | 51 | 224 | 0.0 | 0.0 | 0.00 | 0.00 | 0.00 | 35 | 1023.2 |
| 20260508033410 | 52 | 224 | 0.0 | 0.0 | 0.00 | 0.00 | 0.00 | 34 | 1023.3 |
| 20260508032841 | 52 | 224 | 0.0 | 0.0 | 0.00 | 0.00 | 0.00 | 34 | 1023.3 |
| 20260508032340 | 52 | 224 | 0.0 | 0.0 | 0.00 | 0.00 | 0.00 | 34 | 1023.2 |
| 20260508031820 | 52 | 224 | 0.0 | 0.0 | 0.00 | 0.00 | 0.00 | 33 | 1023.3 |
| 20260508031508 | 52 | 224 | 0.0 | 0.0 | 0.00 | 0.00 | 0.00 | 33 | 1023.2 |
| 20260508030736 | 53 | 224 | 0.0 | 0.0 | 0.00 | 0.00 | 0.00 | 33 | 1023.3 |
| 20260508030207 | 53 | 224 | 0.0 | 0.0 | 0.00 | 0.00 | 0.00 | 32 | 1023.3 |
| 20260508025704 | 53 | 224 | 0.0 | 0.0 | 0.00 | 0.00 | 0.00 | 32 | 1023.4 |
| 20260508025203 | 53 | 224 | 0.0 | 0.0 | 0.00 | 0.00 | 0.00 | 32 | 1023.3 |
| 20260508024642 | 53 | 224 | 0.0 | 0.0 | 0.00 | 0.00 | 0.00 | 32 | 1023.4 |
| 20260508024115 | 53 | 224 | 0.0 | 0.0 | 0.00 | 0.00 | 0.00 | 32 | 1023.3 |
| 20260508023619 | 53 | 224 | 0.0 | 0.0 | 0.00 | 0.00 | 0.00 | 32 | 1023.3 |
| 20260508023320 | 54 | 224 | 0.0 | 0.0 | 0.00 | 0.00 | 0.00 | 32 | 1023.2 |
| 20260508022549 | 54 | 224 | 0.0 | 0.0 | 0.00 | 0.00 | 0.00 | 32 | 1023.2 |
| 20260508022022 | 54 | 224 | 0.0 | 0.0 | 0.00 | 0.00 | 0.00 | 32 | 1023.2 |
| 20260508021501 | 54 | 224 | 0.0 | 0.0 | 0.00 | 0.00 | 0.00 | 32 | 1023.2 |
| 20260508021004 | 54 | 224 | 0.0 | 0.0 | 0.00 | 0.00 | 0.00 | 32 | 1023.1 |
| 20260508020706 | 54 | 224 | 0.0 | 0.0 | 0.00 | 0.00 | 0.00 | 32 | 1023.0 |
| 20260508015934 | 54 | 224 | 0.0 | 0.0 | 0.00 | 0.00 | 0.00 | 32 | 1023.0 |
| 20260508015406 | 54 | 224 | 0.0 | 0.0 | 0.00 | 0.00 | 0.00 | 32 | 1022.9 |
| 20260508015135 | 55 | 224 | 0.0 | 0.0 | 0.00 | 0.00 | 0.00 | 32 | 1022.9 |
| 20260508014408 | 55 | 224 | 0.0 | 0.0 | 0.00 | 0.00 | 0.00 | 31 | 1022.8 |
| 20260508013828 | 55 | 224 | 0.0 | 0.0 | 0.00 | 0.00 | 0.00 | 31 | 1022.8 |
| 20260508013300 | 55 | 224 | 0.0 | 0.0 | 0.00 | 0.00 | 0.00 | 31 | 1022.7 |
| 20260508013017 | 55 | 224 | 0.0 | 0.0 | 0.00 | 0.00 | 0.00 | 30 | 1022.6 |
| 20260508012248 | 56 | 224 | 0.0 | 0.0 | 0.00 | 0.00 | 0.00 | 30 | 1022.7 |
| 20260508011745 | 56 | 224 | 0.0 | 0.0 | 0.00 | 0.00 | 0.00 | 30 | 1022.6 |
| 20260508011237 | 56 | 224 | 0.0 | 0.0 | 0.00 | 0.00 | 0.00 | 29 | 1022.6 |
| 20260508010947 | 56 | 225 | 0.0 | 0.0 | 0.00 | 0.00 | 0.00 | 29 | 1022.6 |
| 20260508010214 | 56 | 224 | 0.0 | 0.0 | 0.00 | 0.00 | 0.00 | 30 | 1022.6 |
| 20260508005645 | 57 | 224 | 0.0 | 0.0 | 0.00 | 0.00 | 0.00 | 29 | 1022.6 |
| 20260508005144 | 57 | 224 | 0.0 | 0.0 | 0.00 | 0.00 | 0.00 | 29 | 1022.6 |
| 20260508004617 | 57 | 224 | 0.0 | 0.0 | 0.00 | 0.00 | 0.00 | 29 | 1022.6 |
| 20260508004101 | 57 | 224 | 0.0 | 0.0 | 0.00 | 0.00 | 0.00 | 29 | 1022.6 |
| 20260508003835 | 58 | 224 | 0.0 | 0.0 | 0.00 | 0.00 | 0.00 | 28 | 1022.6 |
| 20260508003038 | 58 | 224 | 0.0 | 0.0 | 0.00 | 0.00 | 0.00 | 28 | 1022.5 |
| 20260508002512 | 58 | 224 | 0.0 | 0.0 | 0.00 | 0.00 | 0.00 | 27 | 1022.6 |
| 20260508001943 | 58 | 224 | 0.0 | 0.0 | 0.00 | 0.00 | 0.00 | 27 | 1022.6 |
| 20260508001715 | 58 | 246 | 0.0 | 0.0 | 0.00 | 0.00 | 0.00 | 28 | 1022.6 |
| 20260508000921 | 59 | 240 | 0.0 | 0.0 | 0.00 | 0.00 | 0.00 | 27 | 1022.6 |
| 20260508000339 | 59 | 240 | 0.0 | 0.0 | 0.00 | 0.00 | 0.00 | 26 | 1022.5 |
| 20260507235840 | 59 | 240 | 0.0 | 0.0 | 0.00 | 0.00 | 0.00 | 27 | 1022.5 |
| 20260507235545 | 59 | 242 | 0.0 | 0.0 | 0.00 | 0.00 | 0.00 | 27 | 1022.6 |